Aswan, Egypt

3:34 AM EET on April 24, 2018 (GMT +0200)
Aswan

Weather History for HESN - February, 2014

Change the Weather History Date:

Friday, February 21, 2014

  Actual Average Record
Temperature  
Mean Temperature 77 °F -  
Max Temperature 92 °F 80 °F 93 °F (2005)
Min Temperature 62 °F 56 °F 45 °F (2015)
Cooling Degree Days 12    
Growing Degree Days 27 (Base 50)    
Moisture  
Dew Point 37 °F    
Average Humidity 21    
Maximum Humidity 39    
Minimum Humidity 6    
Precipitation  
Precipitation 0.00 in 0.00 in - ()
Sea Level Pressure  
Sea Level Pressure 29.92 in    
Wind  
Wind Speed 5 mph ()    
Max Wind Speed 12 mph    
Max Gust Speed -    
Visibility 6.0 miles    
Events      
Averages and records for this station are not official NWS values.
T = Trace of Precipitation, MM = Missing Value Source: Averaged Metar Reports

Daily Weather History Graph

Daily Weather History Graph

Search for Another Location

Airport or City:

Astronomy

Feb. 21, 2014 Rise Set
Actual Time 6:17 AM EET 5:47 PM EET
Civil Twilight 5:54 AM EET 6:10 PM EET
Nautical Twilight 5:28 AM EET 6:36 PM EET
Astronomical Twilight 5:02 AM EET 7:03 PM EET
Moon 11:37 PM EET (2/21) 10:09 AM EET (2/21)
Length of Visible Light 12h 15m
Length of Day
11h 29m
Waning Gibbous, 64% of the Moon is Illuminated
Feb 21
Waning Gibbous
Feb 22
Last Quarter
Mar 1
New
Mar 8
First Quarter
Mar 16
Full

Hourly Weather History & Observations

Time (EET) Temp. Dew Point Humidity Pressure Visibility Wind Dir Wind Speed Gust Speed Precip Events Conditions
12:00 AM 71.6 °F 41.0 °F 33% 30.01 in - ENE 5.8 mph - N/A   Clear
1:00 AM 69.8 °F 37.4 °F 31% 29.98 in - East 5.8 mph - N/A   Clear
2:00 AM 69 °F 36 °F 19% 29.97 in 6 mi NE 4.6 mph - -  
2:00 AM 69.8 °F 35.6 °F 28% 29.98 in - NE 4.6 mph - N/A   Clear
3:00 AM 69.8 °F 35.6 °F 28% 29.98 in - NNE 2.3 mph - N/A   Clear
4:00 AM 68.0 °F 35.6 °F 30% 29.98 in - North 4.6 mph - N/A   Clear
5:00 AM 68 °F 35 °F 19% 29.95 in 6 mi North 4.6 mph - -  
5:00 AM 68.0 °F 35.6 °F 30% 29.95 in - North 4.6 mph - N/A   Clear
6:00 AM 64.4 °F 33.8 °F 32% 29.95 in - NNW 4.6 mph - N/A   Clear
7:00 AM 62.6 °F 37.4 °F 39% 29.98 in - North 5.8 mph - N/A   Clear
8:00 AM 66.2 °F 37.4 °F 35% 30.01 in - North 5.8 mph - N/A   Clear
9:00 AM 71.6 °F 37.4 °F 29% 30.01 in - North 6.9 mph - N/A   Clear
10:00 AM 77.0 °F 35.6 °F 22% 30.01 in - North 5.8 mph - N/A   Clear
11:00 AM 84 °F 33 °F 8% 29.94 in 6 mi NNE 4.6 mph - -  
11:00 AM 84.2 °F 33.8 °F 16% 29.98 in - NNE 4.6 mph - N/A   Clear
12:00 PM 89.6 °F 32.0 °F 13% 29.95 in - East 5.8 mph - N/A   Clear
1:00 PM 91.4 °F 35.6 °F 14% 29.89 in - ESE 11.5 mph - N/A   Clear
2:00 PM 92 °F 34 °F 6% 29.83 in 6 mi SE 6.9 mph - -  
2:00 PM 91.4 °F 33.8 °F 13% 29.86 in - SE 6.9 mph - N/A   Clear
3:00 PM 93.2 °F 33.8 °F 12% 29.86 in - SE 6.9 mph - N/A   Clear
4:00 PM 91.4 °F 33.8 °F 13% 29.83 in - East 6.9 mph - N/A   Clear
5:00 PM 91 °F 37 °F 8% 29.80 in 6 mi East 4.6 mph - -  
5:00 PM 91.4 °F 37.4 °F 15% 29.83 in - East 4.6 mph - N/A   Clear
6:00 PM 87.8 °F 39.2 °F 18% 29.83 in - East 5.8 mph - N/A   Clear
7:00 PM 82.4 °F 42.8 °F 25% 29.86 in - East 4.6 mph - N/A   Clear
8:00 PM 80 °F 43 °F 17% 29.85 in 6 mi East 3.5 mph - -  
8:00 PM 80.6 °F 42.8 °F 26% 29.86 in - East 3.5 mph - N/A   Clear
9:00 PM 80.6 °F 35.6 °F 20% 29.89 in - NNW 8.1 mph - N/A   Clear
10:00 PM 77.0 °F 35.6 °F 22% 29.89 in - North 10.4 mph - N/A   Clear
11:00 PM 76 °F 38 °F 16% 29.86 in 6 mi North 4.6 mph - -  
11:00 PM 75.2 °F 39.2 °F 27% 29.86 in - North 4.6 mph - N/A   Clear